SL-12 R/B(AUX MOTOR), 32281

Orbit data source: Space-Track

SL-12 R/B(AUX MOTOR), 32281 is space debris in HEO originally from a launch on Fri, 26 Oct 2007 UTC launched from the Tyuratam Missile And Space Complex (TTMTR). Debris objects in space refer to the collection of defunct objects orbiting the Earth. Examples of debris include non-operational satellites, rocket bodies, and fragments generated from explosions, collisions, or faulty payload assembly.

Loading next visibility...
Identifier
32281, 2007-052G
Orbit
HEO
Country
Flag of CISCIS
Related business
Manufacturer
RKKE
Mission
Spacecraft
Bus & Motor
SOZ, Unknown motor
Mass
56 kg wet, 56 kg dry
Launch date (UTC)
2007-10-26 (19 years ago)
Launch vehicle
Unknown
Launch site
Tyuratam Missile And Space Complex (TTMTR)
Object type
Payload
Rocket body
Debris
Shape & HBR
Cyl, 0.6 m
Radar Cross Section
0.660 m², Medium (>0.1 m² and < 1m²)

Expand to show TLE details & history
Last TLE update: 2 days ago

TLE from 2 days ago
0 SL-12 R/B(AUX MOTOR)
1 32281U 07052G   26171.41620860  .00000128  00000-0  48414-3 0  9999
2 32281  65.1163 298.3475 5709260 201.5884 119.0342  4.23745587288053
Epoch: 2026-06-20T09:59Z
TLE epoch observation values (Epoch: 2026-06-20T09:59:20.423Z)
Latitude
-0.00002°
Longitude
-120.12136°
Altitude
16,814.038 km
Speed
3.109 km/s
True Right ascension
19h 53m 22s
True Declination
0° 00' 00"
Sunlit
Object was in daylight at epoch
Visualization orbit readout
Latitude
Unknown
Longitude
Unknown
Altitude
Unknown
Speed
Unknown
Apparent Right ascension
Unknown
Apparent Declination
Unknown
Sunlit
N/A
Visualization observer readout
Local Sidereal Time
00:51:32
Azimuth
Unknown
Elevation
Unknown
Doppler factor
Unknown
Orbital elements
Apogee altitude
18,960.888 km
Perigee altitude
542.824 km
Semi-major axis
16,129.993 km
Eccentricity
0.57093
Inclination
65.1163°
RAAN
298.3475°
Arg. of periapsis
201.5884°
True anomaly
158.48401°
Mean anomaly
119.0342°
Eccentric anomaly
140.04233°
Mean motion
1.05948 °/min
Orbital period
339.79 mins
BSTAR
0.00048414
Loading maneuver chart data...
Computing Atmospheric mass density...
Loading historical data...
Loading historical data...
Loading historical data...
Loading historical data...
Loading historical data...
Loading historical data...
Loading historical data...

Documentation

Showing up to 5 results
|